Flag for Germany Weather past 2 weeks in Flensburg, Schleswig-Holstein, Germany

Now
59 °F

Broken clouds.


Feels Like: 56 °F
Forecast: 50 / 55 °F
Wind: 14 mph from West

Location: Soenderborg Lufthavn

Current Time: Oct 20, 2014 at 1:43:40 PM

Latest Report: Oct 20, 2014 at 12:50 PM


Visibility: N/A

Pressure: 29.77 "Hg

Humidity: 68%

Dew point: 48 °F

Location of FlensburgLocation

Historic Weather in Flensburg — Graph

°F

Flensburg temperature yesterday

Maximum temperature yesterday: 63 °F (at 12:20 PM)
Minimum temperature yesterday: 61 °F (at 8:20 AM)
Average temperature yesterday: 61 °F

Past Weeks' High & Low Weather Summary

 TemperatureHumidityPressure
High63 °F (Oct 9, 11:50 AM)100% (Oct 11, 7:22 AM)30.09 "Hg (Oct 11, 7:22 AM)
Low50 °F (Oct 8, 5:58 AM)68% (Oct 9, 4:50 PM)29.42 "Hg (Oct 7, 3:01 PM)
Average56 °F89%29.78 "Hg
* Reported Oct 5 11:51 AM — Oct 20 11:50 AM, Flensburg, Weather by CustomWeather, © 2014

Note: Actual official high and low records may vary slightly from our data, if they occured in-between our weather recording intervals... More about our weather records

Advertising

Flensburg weather history for previous 24 hours

 ConditionsComfort  
Time TempWeatherWind HumidityBarometerVisibility
11:50 AM
Oct 20
59 °FScattered clouds.13 mph72%29.74 "HgN/A
10:50 AM57 °FBroken clouds.9 mph77%29.74 "HgN/A
9:50 AM57 °FPassing clouds.9 mph82%29.74 "HgN/A
8:50 AM55 °FPassing clouds.8 mph82%29.71 "HgN/A
7:50 AM55 °FPassing clouds.8 mph88%29.68 "HgN/A
6:50 AM57 °FPassing clouds.8 mph82%29.68 "HgN/A
7:50 PM
Oct 19
61 °FPassing clouds.15 mph83%29.71 "HgN/A
6:50 PM61 °FScattered clouds.15 mph88%29.71 "HgN/A
5:50 PM63 °FPartly sunny.16 mph88%29.71 "HgN/A
4:50 PM63 °FPartly sunny.13 mph88%29.71 "HgN/A
3:50 PM63 °FBroken clouds.9 mph94%29.74 "HgN/A
3:20 PM63 °FBroken clouds.9 mph94%29.74 "HgN/A
2:50 PM61 °FLight rain. Broken clouds.7 mph100%29.77 "Hg3 mi
2:20 PM61 °FLight rain. Broken clouds.7 mph100%29.74 "Hg3 mi
1:50 PM61 °FLight rain. Broken clouds.10 mph100%29.77 "Hg3 mi
1:20 PM63 °FLight rain. Broken clouds.10 mph94%29.77 "Hg4 mi
Weather by CustomWeather, © 2014

See weather overviewHow to use our weather pages